Terminal Aerodrome Forecast
Issued by NWS Buffalo, NY

Home | Current Version | Previous Version | Text Only | Print | Product List | Glossary On
Versions: 1 2 3 4 5 6 7 8 9 10 11 12 13 14 15 16 17 18 19 20 21 22 23 24 25 26
000
FTUS41 KBUF 310526
TAFART
TAF
KART 310526Z 3106/0106 24004KT P6SM SKC
     FM311400 25010G16KT P6SM FEW250
     FM312000 26009KT P6SM SCT250
     FM312200 29007KT P6SM SCT050
     FM312300 34006KT P6SM SCT045
     FM010500 04006KT P6SM FEW250=

USA.gov is the U.S. government's official web portal to all federal, state and local government web resources and services.